Regional Weather Roundup
Issued by NWS

Home | Current Version | Previous Version | Text Only | Print | Product List | Glossary Off
Versions: 1 2 3 4 5 6 7 8 9 10 11 12 13 14 15 16 17 18 19 20 21 22 23 24 25 26 27

000
ASUS45 KBOI 261810
RWRID

IDAHO REGIONAL WEATHER ROUNDUP
NATIONAL WEATHER SERVICE BOISE ID
1200 PM MDT MON SEP 26 2016

NOTE: "FAIR" INDICATES FEW OR NO CLOUDS BELOW 12000 FEET
WITH NO SIGNIFICANT WEATHER AND/OR OBSTRUCTIONS TO VISIBILITY

IDZ012-014-261900-
SOUTHWEST IDAHO


CITY           SKY/WX    TMP DP  RH WIND       PRES   REMARKS
BOISE          SUNNY     74  35  24 SE15      30.32F
CALDWELL       SUNNY     72  42  34 E9        30.32F
MOUNTAIN HOME  SUNNY     69  38  33 SE15      30.33F
$$

IDZ016-017-261900-
SOUTHCENTRAL IDAHO


CITY           SKY/WX    TMP DP  RH WIND       PRES   REMARKS
BURLEY         SUNNY     66  45  46 NE8       30.39F
JEROME         SUNNY     68  40  35 E10       30.39F
TWIN FALLS     SUNNY     68  44  42 NE7       30.39S
$$

IDZ019>023-261900-
SOUTHEAST IDAHO


CITY           SKY/WX    TMP DP  RH WIND       PRES   REMARKS
IDAHO FALLS    SUNNY     61  40  45 CALM      30.45F
POCATELLO      SUNNY     61  40  45 E6        30.44F
REXBURG        SUNNY     58  40  51 CALM      30.45F
$$

IDZ006-010-011-018-031-032-261900-
CENTRAL IDAHO MOUNTAINS


CITY           SKY/WX    TMP DP  RH WIND       PRES   REMARKS
MCCALL         SUNNY     63  42  46 CALM      30.38F
HAILEY         MOSUNNY   64  45  48 SE12      30.45F
STANLEY          N/A     57  40  52 N3        30.50F
SALMON           N/A     63 N/A N/A CALM      30.43
CHALLIS        SUNNY     60  41  49 CALM      30.44F
$$

IDZ002-004-006-007-026-261900-
NORTHERN IDAHO


CITY           SKY/WX    TMP DP  RH WIND       PRES   REMARKS
LEWISTON       SUNNY     72  44  36 E6        30.20F
LOWELL           N/A     65  46  50 CALM      30.29F
COEUR D`ALENE  NOT AVBL
MULLAN PASS    MOSUNNY   57  43  59 S8        30.40F
$$




USA.gov is the U.S. government's official web portal to all federal, state and local government web resources and services.